Weather History for McAllen, TX

Change the Weather History Date:

Sunday, January 6, 2013

  Actual Average Record
Temperature  
Mean Temperature 57 °F 60 °F  
Max Temperature 66 °F 70 °F 90 °F (1946)
Min Temperature 48 °F 50 °F 30 °F (1906)
Degree Days  
Heating Degree Days 8 7  
Month to date heating degree days 42  
Since 1 July heating degree days 279  
Cooling Degree Days 0 2  
Month to date cooling degree days 12  
Year to date cooling degree days 12  
Growing Degree Days 7 (Base 50)    
Moisture  
Dew Point 42 °F    
Average Humidity 61    
Maximum Humidity 80    
Minimum Humidity 36    
Precipitation  
Precipitation 0.00 in 0.03 in 0.73 in (1959)
Month to date precipitation 0.19  
Year to date precipitation 0.19  
Sea Level Pressure  
Sea Level Pressure 30.30 in    
Wind  
Wind Speed 8 mph (NNW)    
Max Wind Speed 16 mph    
Max Gust Speed 20 mph    
Visibility 10 miles    
Events      
T = Trace of Precipitation, MM = Missing Value Source: NWS Daily Summary

Daily Weather History Graph

Daily Weather History Graph

Search for Another Location

Airport:

Trip Planner

Search our weather history database for the weather conditions in past years. The results will help you decide how hot, cold, wet, or windy it might be!

Date:

Astronomy

Jan. 06, 2013 Rise Set
Actual Time 7:21 AM CST 5:56 PM CST
Civil Twilight 6:56 AM CST 6:21 PM CST
Nautical Twilight 6:27 AM CST 6:50 PM CST
Astronomical Twilight 5:59 AM CST 7:18 PM CST
Moon 1:50 AM CST (1/6) 1:14 PM CST (1/6)
Length of Visible Light 11h 25m
Length of Day
10h 34m
Waning Crescent, 33% of the Moon is Illuminated
Jan 6
Waning Crescent
Jan 11
New
Jan 18
First Quarter
Jan 26
Full
Feb 3
Last Quarter

Hourly Weather History & Observations

Time (CST) Temp. Dew Point Humidity Pressure Visibility Wind Dir Wind Speed Gust Speed Precip Events Conditions
12:53 AM 52.0 °F 45.0 °F 77% 30.29 in 10.0 mi NW 8.1 mph - N/A   Overcast
1:53 AM 52.0 °F 44.1 °F 74% 30.29 in 10.0 mi NW 6.9 mph - N/A   Overcast
2:53 AM 52.0 °F 45.0 °F 77% 30.27 in 10.0 mi NW 8.1 mph - N/A   Overcast
3:53 AM 53.1 °F 43.0 °F 69% 30.27 in 10.0 mi NW 10.4 mph - N/A   Overcast
4:53 AM 52.0 °F 44.1 °F 74% 30.27 in 10.0 mi NW 6.9 mph - N/A   Overcast
5:53 AM 52.0 °F 44.1 °F 74% 30.27 in 10.0 mi NW 8.1 mph - N/A   Overcast
6:53 AM 52.0 °F 43.0 °F 71% 30.31 in 10.0 mi WNW 8.1 mph - N/A   Overcast
7:53 AM 51.1 °F 43.0 °F 74% 30.32 in 10.0 mi NNW 8.1 mph - N/A   Overcast
8:53 AM 53.1 °F 44.1 °F 71% 30.35 in 10.0 mi NW 8.1 mph - N/A   Overcast
9:53 AM 55.0 °F 44.1 °F 67% 30.37 in 10.0 mi NNW 8.1 mph - N/A   Overcast
10:53 AM 57.9 °F 43.0 °F 58% 30.37 in 10.0 mi NNW 10.4 mph - N/A   Overcast
11:53 AM 60.1 °F 43.0 °F 53% 30.34 in 10.0 mi NNW 10.4 mph - N/A   Overcast
12:53 PM 63.0 °F 42.1 °F 46% 30.29 in 10.0 mi NNW 12.7 mph 19.6 mph N/A   Clear
1:53 PM 64.0 °F 39.9 °F 41% 30.27 in 10.0 mi North 16.1 mph - N/A   Overcast
2:53 PM 66.0 °F 39.0 °F 37% 30.25 in 10.0 mi NNE 10.4 mph - N/A   Overcast
3:53 PM 66.9 °F 39.0 °F 36% 30.25 in 10.0 mi NNE 8.1 mph - N/A   Partly Cloudy
4:53 PM 66.0 °F 37.9 °F 36% 30.25 in 10.0 mi NNE 6.9 mph - N/A   Clear
5:53 PM 62.1 °F 39.0 °F 43% 30.26 in 10.0 mi NNE 4.6 mph - N/A   Clear
6:53 PM 59.0 °F 41.0 °F 51% 30.28 in 10.0 mi East 6.9 mph - N/A   Partly Cloudy
7:53 PM 57.0 °F 39.9 °F 53% 30.30 in 10.0 mi ENE 4.6 mph - N/A   Partly Cloudy
8:53 PM 53.6 °F 41.0 °F 62% 30.30 in 10.0 mi East 5.8 mph - N/A   Clear
9:53 PM 51.1 °F 42.1 °F 71% 30.32 in 10.0 mi Calm Calm - N/A   Partly Cloudy
10:53 PM 48.9 °F 43.0 °F 80% 30.32 in 10.0 mi Calm Calm - N/A   Partly Cloudy
11:53 PM 51.1 °F 44.1 °F 77% 30.31 in 10.0 mi Calm Calm - N/A   Overcast